EW5739 Weather Reports


time (UTC)temp
F
wind
direction
speed
knots
gust
knots
rain 1hr
in
rain 24hr
in
rain mn
in
humidity
%
barometer
mb
20260507114707 47 260 0.0 0.0 0.00 0.85 0.31 92 1005.6
20260507114204 47 269 0.0 0.0 0.00 0.85 0.31 92 1005.7
20260507114200 47 311 0.0 0.0 0.00 0.85 0.31 93 1005.8
20260507113148 47 278 0.0 0.0 0.00 0.85 0.31 94 1005.7
20260507112642 46 280 0.0 0.0 0.00 0.85 0.31 94 1005.7
20260507112127 46 265 0.0 0.0 0.00 0.85 0.31 95 1006.0
20260507112112 46 258 0.0 0.0 0.00 0.85 0.31 96 1006.1
20260507111110 46 337 0.0 0.0 0.00 0.85 0.31 96 1005.9
20260507110610 46 319 0.0 0.0 0.00 0.85 0.31 97 1005.7
20260507110115 46 255 0.0 0.0 0.00 0.85 0.31 97 1006.7
20260507110111 46 255 0.0 0.0 0.00 0.85 0.31 97 1006.3
20260507105714 46 329 0.0 0.0 0.00 0.85 0.31 97 1006.0
20260507104610 46 262 0.0 0.0 0.00 0.85 0.31 98 1005.8
20260507104115 45 300 0.0 0.0 0.00 0.85 0.31 99 1005.7
20260507104111 46 257 0.0 0.0 0.00 0.85 0.31 98 1006.3
20260507103606 45 257 0.0 0.0 0.00 0.85 0.31 98 1006.1
20260507103211 45 27 0.0 0.0 0.00 0.85 0.31 99 1006.0
20260507102711 45 262 0.0 0.0 0.00 0.85 0.31 99 1005.8
20260507101605 45 261 0.0 0.0 0.00 0.85 0.31 99 1005.9
20260507101107 45 261 0.0 0.0 0.00 0.85 0.31 99 1006.0
20260507101103 45 261 0.0 0.0 0.00 0.85 0.31 99 1005.6
20260507100707 45 262 0.0 0.0 0.00 0.85 0.31 99 1005.2
20260507100207 45 262 0.0 0.0 0.00 0.85 0.31 99 1005.1
20260507095102 45 262 0.0 0.0 0.00 0.85 0.31 99 1005.5
20260507094602 45 262 0.0 0.0 0.00 0.85 0.31 98 1005.7
20260507094102 45 260 0.0 0.0 0.00 0.85 0.31 98 1005.3
20260507093602 45 264 0.0 0.0 0.00 0.85 0.31 98 1005.1
20260507093102 45 297 0.0 0.0 0.00 0.85 0.31 98 1004.8
20260507092602 45 271 0.0 0.0 0.00 0.85 0.31 99 1005.2
20260507092207 46 274 0.0 0.0 0.00 0.85 0.31 99 1005.3
20260507092107 45 276 0.0 0.0 0.00 0.85 0.31 99 1005.3
20260507092103 45 265 0.0 0.0 0.00 0.85 0.31 99 1005.6
20260507091102 46 262 0.0 0.0 0.00 0.85 0.31 99 1005.5
20260507090708 46 304 0.0 0.0 0.00 0.85 0.31 99 1005.4
20260507085607 46 262 0.0 0.0 0.00 0.85 0.31 99 1005.2
20260507085602 46 276 0.0 0.0 0.00 0.85 0.31 99 1005.5
20260507084603 46 297 0.0 0.0 0.00 0.85 0.31 99 1005.2
20260507084102 46 250 0.0 0.0 0.00 0.85 0.31 99 1005.0
20260507083600 46 316 0.0 0.0 0.00 0.85 0.31 99 1004.9
20260507083100 47 265 0.0 0.0 0.00 0.85 0.31 99 1005.3
20260507082600 47 280 0.0 0.0 0.00 0.85 0.31 99 1005.4
20260507082059 47 278 0.0 0.0 0.00 0.85 0.31 99 1005.2
20260507081554 47 271 0.0 0.0 0.00 0.85 0.31 99 1005.3
20260507081053 47 295 0.0 0.0 0.00 0.85 0.31 99 1004.8
20260507080552 47 276 0.0 0.0 0.00 0.85 0.31 99 1005.0
20260507080052 47 250 0.0 0.0 0.00 0.85 0.31 99 1005.0
20260507075552 48 287 0.0 0.9 0.00 0.85 0.31 99 1004.9
20260507075048 48 282 0.0 0.9 0.00 0.85 0.31 99 1004.9
20260507074548 48 276 0.0 0.0 0.00 0.85 0.31 99 1005.0
20260507074047 48 263 0.0 0.0 0.00 0.85 0.31 99 1004.8
20260507073546 48 278 0.0 0.0 0.00 0.85 0.31 99 1004.7
20260507073046 48 291 0.0 0.0 0.00 0.85 0.31 99 1004.8
20260507072546 49 273 0.0 0.0 0.00 0.85 0.31 99 1004.9
20260507072046 49 313 0.0 0.0 0.00 0.85 0.31 99 1004.6
20260507071547 49 256 0.0 0.0 0.00 0.85 0.31 99 1004.5
20260507071046 49 268 0.0 0.0 0.00 0.85 0.31 99 1004.5
20260507070544 49 269 0.0 0.0 0.00 0.85 0.31 99 1004.4
20260507070044 49 268 0.0 0.0 0.01 0.85 0.31 99 1004.2
20260507065546 49 250 0.0 0.0 0.01 0.85 0.31 99 1004.3
20260507065542 49 268 0.0 0.0 0.01 0.85 0.31 99 1004.2
20260507064540 49 250 0.0 0.0 0.01 0.85 0.31 99 1004.1
20260507064040 49 250 0.0 0.0 0.01 0.85 0.31 99 1003.9
20260507063540 49 276 0.0 0.0 0.01 0.85 0.31 99 1004.0
20260507063038 49 276 0.0 0.0 0.01 0.85 0.31 99 1004.0
20260507062538 49 304 0.0 0.0 0.01 0.85 0.31 99 1004.0
20260507062038 49 282 0.0 0.0 0.01 0.85 0.31 99 1004.0
20260507061538 49 237 0.0 0.0 0.01 0.85 0.31 99 1004.1
20260507061038 49 271 0.0 0.0 0.01 0.85 0.31 99 1004.0
20260507060538 49 253 0.0 0.0 0.02 0.85 0.31 99 1003.7
20260507060042 49 265 0.0 0.0 0.04 0.84 0.30 99 1003.8
20260507060038 49 270 0.0 0.0 0.02 0.84 0.30 99 1003.9
20260507055036 49 300 0.0 0.9 0.06 0.84 0.30 99 1003.9
20260507054536 49 264 0.0 1.7 0.10 0.84 0.30 99 1003.8
20260507054036 49 252 0.0 1.7 0.13 0.84 0.30 99 1003.9
20260507053540 50 312 0.9 4.3 0.20 0.84 0.30 99 1003.8
20260507053536 49 248 0.0 4.3 0.16 0.84 0.30 99 1003.9
20260507052541 50 277 0.9 4.3 0.24 0.84 0.30 99 1003.8
20260507052036 50 277 1.7 5.2 0.26 0.84 0.30 99 1003.8
20260507051535 50 355 1.7 8.7 0.27 0.84 0.30 99 1004.0
20260507051036 50 250 1.7 8.7 0.29 0.84 0.30 99 1004.0
20260507050533 51 316 1.7 6.1 0.29 0.83 0.30 99 1003.8
20260507050034 51 272 1.7 7.8 0.28 0.82 0.28 99 1003.7
20260507045534 51 308 0.9 7.8 0.27 0.80 0.27 99 1004.4
20260507045034 52 20 0.0 0.0 0.25 0.78 0.25 99 1004.4
20260507044534 52 259 0.0 0.0 0.21 0.74 0.21 99 1004.7
20260507044034 52 259 0.0 0.0 0.18 0.71 0.18 99 1004.8
20260507043533 52 259 0.0 0.0 0.15 0.68 0.15 99 1004.2
20260507043034 52 303 0.0 0.0 0.11 0.64 0.11 99 1003.9
20260507042534 52 303 0.0 0.0 0.07 0.60 0.07 99 1003.8
20260507042036 52 303 0.0 0.0 0.05 0.58 0.04 99 1003.7
20260507042032 52 296 0.0 0.0 0.04 0.57 0.03 99 1003.5
20260507041636 52 223 0.0 0.0 0.02 0.55 0.02 99 1003.5
20260507040537 52 252 0.0 0.0 0.01 0.54 0.00 99 1003.1
20260507040531 52 304 0.0 0.0 0.01 0.54 0.00 99 1003.5
20260507040031 52 252 0.0 0.0 0.00 0.53 0.53 99 1003.1
20260507035634 52 108 0.0 0.0 0.00 0.53 0.53 99 1002.9
20260507034526 52 108 0.0 0.0 0.00 0.53 0.53 99 1003.1
20260507034027 52 231 0.0 0.0 0.00 0.53 0.53 99 1003.2
20260507033526 52 219 0.0 0.0 0.00 0.53 0.53 99 1003.3
20260507033024 52 252 0.0 0.0 0.00 0.53 0.53 99 1003.2
20260507032523 52 153 0.0 0.0 0.00 0.53 0.53 99 1003.4
20260507032020 52 285 0.0 0.0 0.01 0.53 0.53 99 1003.4
20260507031520 52 234 0.0 0.0 0.01 0.53 0.53 99 1003.3
20260507031020 53 257 0.0 0.9 0.01 0.53 0.53 99 1003.3
20260507030520 53 234 0.0 1.7 0.02 0.53 0.53 99 1003.2
20260507030020 53 134 0.0 1.7 0.02 0.53 0.53 99 1003.3
20260507025520 53 103 0.0 1.7 0.02 0.53 0.53 99 1003.4
20260507025020 53 218 0.0 0.9 0.03 0.53 0.53 99 1003.5
20260507024519 53 165 0.0 0.9 0.03 0.53 0.53 99 1003.5
20260507024020 53 209 0.0 4.3 0.03 0.53 0.53 99 1003.6
20260507023524 53 217 0.0 0.0 0.05 0.53 0.53 99 1003.7
20260507023520 53 94 0.0 4.3 0.04 0.53 0.53 99 1003.6
20260507022524 52 86 0.0 0.0 0.04 0.52 0.52 99 1003.8
20260507022520 52 316 0.0 0.0 0.05 0.53 0.53 99 1003.7
20260507021518 52 229 0.0 0.0 0.04 0.52 0.52 99 1003.9
20260507021017 52 229 0.0 0.0 0.05 0.52 0.52 99 1004.0
20260507020516 52 216 0.0 0.0 0.04 0.51 0.51 99 1004.1
20260507020016 52 215 0.0 0.0 0.05 0.51 0.51 99 1004.2
20260507015515 52 188 0.0 0.0 0.07 0.51 0.51 99 1004.2
20260507015014 52 191 0.0 0.0 0.07 0.50 0.50 99 1004.3
20260507014514 52 217 0.0 0.9 0.07 0.50 0.50 99 1004.3
20260507014014 52 227 0.0 2.6 0.08 0.50 0.50 99 1004.4
20260507013514 52 223 0.0 2.6 0.07 0.49 0.49 99 1004.2
20260507013015 52 214 0.0 2.6 0.06 0.48 0.48 99 1004.5
20260507012516 53 236 0.9 4.3 0.06 0.48 0.48 99 1004.6
20260507012512 53 304 0.9 4.3 0.06 0.48 0.48 99 1004.6
20260507011517 52 203 0.0 0.9 0.05 0.47 0.47 99 1004.5
20260507011512 53 222 0.0 0.9 0.06 0.48 0.48 99 1004.6
20260507011012 52 243 0.0 0.9 0.05 0.47 0.47 99 1004.6
20260507010016 52 127 0.0 3.5 0.02 0.44 0.45 99 1004.7
20260507010012 52 299 0.0 0.9 0.04 0.46 0.46 99 1004.7
20260507005012 53 146 0.0 3.5 0.01 0.43 0.43 99 1004.8
20260507004516 53 242 0.9 4.3 0.00 0.42 0.42 99 1004.9
20260507004512 53 290 0.0 4.3 0.01 0.43 0.43 99 1004.9
20260507004116 53 287 0.9 4.3 0.00 0.42 0.42 99 1005.0
20260507003512 53 66 0.9 3.5 0.00 0.42 0.42 99 1004.9
20260507002510 52 300 0.9 6.1 0.00 0.42 0.42 99 1004.9
20260507002010 52 192 0.9 6.1 0.00 0.42 0.42 99 1004.7
20260507001510 53 115 0.9 6.1 0.00 0.42 0.42 99 1004.8
20260507001010 53 30 0.9 3.5 0.00 0.42 0.42 99 1004.9
20260507000509 53 148 0.9 3.5 0.00 0.42 0.42 99 1004.8
20260507000010 53 282 0.9 3.5 0.01 0.42 0.42 99 1004.8
20260506235510 53 211 0.9 3.5 0.01 0.42 0.42 99 1004.8
20260506235009 53 162 0.9 7.8 0.01 0.42 0.42 99 1005.0
20260506234508 53 200 0.9 7.8 0.01 0.42 0.42 99 1005.0
20260506234007 54 159 0.0 3.5 0.01 0.42 0.42 99 1005.0
20260506233512 54 119 0.0 0.0 0.04 0.42 0.42 99 1005.1
20260506233508 54 283 0.0 0.9 0.02 0.42 0.42 99 1005.0
20260506233007 54 107 0.0 0.0 0.03 0.42 0.42 99 1005.1
20260506232007 54 214 0.0 0.0 0.04 0.42 0.42 99 1005.1
20260506231508 54 208 0.0 0.0 0.05 0.42 0.42 99 1005.2
20260506231008 54 129 0.0 0.0 0.06 0.42 0.42 99 1005.2
20260506230507 54 286 0.0 0.0 0.07 0.42 0.42 99 1005.2
20260506230012 54 248 0.0 1.7 0.08 0.41 0.41 99 1005.3
20260506230008 54 255 0.0 1.7 0.07 0.41 0.41 99 1005.2
20260506225507 54 217 0.0 1.7 0.08 0.41 0.41 99 1005.2
20260506224506 54 120 0.0 0.0 0.09 0.41 0.41 99 1005.3
20260506224006 54 224 0.0 0.0 0.10 0.41 0.41 99 1005.4
20260506223506 54 221 0.0 0.0 0.11 0.40 0.40 99 1005.4
20260506223006 54 270 0.0 0.0 0.12 0.39 0.39 99 1005.5
20260506222506 54 30 0.0 0.0 0.13 0.38 0.38 99 1005.4
20260506222010 54 284 0.0 0.0 0.16 0.37 0.37 99 1005.5
20260506222006 54 273 0.0 0.0 0.15 0.38 0.38 99 1005.5
20260506221003 54 131 0.0 0.0 0.18 0.36 0.36 99 1005.6
20260506220504 54 215 0.0 0.0 0.18 0.35 0.35 99 1005.7
20260506220001 54 333 0.0 0.0 0.18 0.34 0.34 99 1005.7
20260506215501 54 324 0.0 0.0 0.18 0.33 0.33 99 1005.8
20260506215002 54 214 0.0 0.0 0.18 0.33 0.33 99 1005.7
20260506214500 54 18 0.0 0.0 0.18 0.32 0.32 99 1005.9
20260506214000 54 138 0.0 0.0 0.17 0.30 0.31 99 1005.7
20260506213500 54 200 0.0 0.0 0.17 0.29 0.29 99 1005.8
20260506212959 54 266 0.0 0.0 0.16 0.27 0.27 99 1006.1
20260506212459 54 252 0.0 0.0 0.14 0.25 0.25 99 1006.0
20260506212000 54 117 0.0 0.0 0.13 0.23 0.23 99 1006.0
20260506211503 54 81 0.0 0.0 0.12 0.21 0.21 99 1005.9
20260506211459 54 302 0.0 0.0 0.10 0.18 0.19 99 1006.1
20260506210457 55 215 0.0 0.0 0.10 0.17 0.17 99 1006.2
20260506205948 55 38 0.0 0.0 0.10 0.16 0.16 99 1006.2
20260506205445 55 234 0.0 0.0 0.09 0.15 0.15 99 1006.2
20260506204946 55 257 0.0 0.0 0.10 0.15 0.15 99 1005.8
20260506204440 55 167 0.0 0.0 0.10 0.14 0.14 99 1006.0
20260506203930 55 59 0.0 0.0 0.09 0.13 0.13 99 1006.2
20260506203913 55 227 0.0 0.0 0.09 0.12 0.12 99 1006.4
20260506202907 55 293 0.0 0.0 0.09 0.11 0.11 99 1006.4
20260506202407 55 158 0.0 0.0 0.10 0.11 0.11 99 1006.6
20260506201907 55 212 0.0 0.0 0.10 0.10 0.10 99 1006.6
20260506201353 55 120 0.0 0.0 0.09 0.09 0.09 99 1006.6
20260506200853 55 55 0.0 0.0 0.07 0.07 0.08 98 1006.7
20260506200354 55 152 0.0 0.0 0.07 0.07 0.07 98 1006.6
20260506195840 55 147 0.0 0.0 0.06 0.06 0.06 97 1006.8
20260506195338 55 145 0.0 0.0 0.06 0.06 0.06 97 1006.6
20260506194833 56 255 0.0 0.0 0.03 0.03 0.04 95 1006.7
20260506194829 55 144 0.0 0.0 0.05 0.05 0.05 96 1006.7
20260506194328 55 34 0.0 0.0 0.04 0.04 0.04 96 1006.5
20260506193327 56 333 0.0 0.0 0.03 0.03 0.03 94 1006.7
20260506192807 56 229 0.9 7.8 0.02 0.02 0.02 94 1006.5
20260506192307 56 129 0.0 7.8 0.01 0.01 0.01 93 1006.4
20260506191805 57 282 0.0 0.0 0.00 0.00 0.00 92 1006.6
20260506191306 57 310 0.0 0.0 0.00 0.00 0.00 91 1006.4
20260506190807 57 247 0.0 0.0 0.00 0.00 0.00 89 1006.6
20260506190803 57 110 0.0 0.0 0.00 0.00 0.00 87 1006.4
20260506190407 57 111 0.0 0.0 0.00 0.00 0.00 87 1006.4
20260506185300 58 146 0.0 0.0 0.00 0.00 0.00 86 1006.5
20260506184757 58 99 0.0 0.0 0.00 0.00 0.00 86 1006.6
20260506184300 58 132 0.0 0.0 0.00 0.00 0.00 85 1006.6
20260506183739 58 302 0.0 0.0 0.00 0.00 0.00 85 1006.8
20260506183237 59 234 0.0 0.0 0.00 0.00 0.00 84 1006.8
20260506182727 59 32 0.0 0.0 0.00 0.00 0.00 84 1006.6
20260506182223 59 267 0.0 0.0 0.00 0.00 0.00 84 1006.8
20260506181717 59 133 0.9 5.2 0.00 0.00 0.00 83 1006.8
20260506181216 59 302 0.9 5.2 0.00 0.00 0.00 84 1006.8
20260506181212 59 134 0.9 4.3 0.00 0.00 0.00 84 1006.9
20260506180210 59 240 0.9 5.2 0.00 0.00 0.00 85 1007.0
20260506175709 59 92 0.9 5.2 0.00 0.00 0.00 84 1007.0
20260506175209 59 134 0.0 2.6 0.00 0.00 0.00 83 1007.0
20260506174707 59 203 0.0 2.6 0.00 0.00 0.00 84 1007.2
20260506174143 59 210 0.9 2.6 0.00 0.00 0.00 84 1007.2
20260506173641 60 213 0.9 4.3 0.00 0.00 0.00 84 1007.1
20260506173139 60 106 0.9 5.2 0.00 0.00 0.00 84 1007.3
20260506172639 60 104 0.9 5.2 0.00 0.00 0.00 84 1007.4
20260506172109 60 229 0.0 4.3 0.00 0.00 0.00 84 1007.4
20260506171609 60 116 0.0 0.0 0.00 0.00 0.00 83 1007.6
20260506171108 61 175 0.0 0.0 0.00 0.00 0.00 82 1007.7
20260506171103 61 79 0.0 0.0 0.00 0.00 0.00 82 1007.6
20260506170053 61 124 0.0 0.0 0.00 0.00 0.00 83 1007.8
20260506165529 61 94 0.0 0.0 0.00 0.00 0.00 83 1007.9
20260506165029 61 155 0.0 0.0 0.00 0.00 0.00 82 1007.9
20260506164622 61 202 0.0 0.0 0.00 0.00 0.00 83 1008.2
20260506164529 61 113 0.0 0.0 0.00 0.00 0.00 82 1008.0
20260506164519 61 127 0.0 0.0 0.00 0.00 0.00 83 1008.2
20260506163013 61 354 0.0 0.0 0.00 0.00 0.00 82 1008.2
20260506162509 62 122 0.0 0.0 0.00 0.00 0.00 81 1008.3
20260506162009 62 138 0.0 0.0 0.00 0.00 0.00 81 1008.5
20260506161509 62 213 0.0 0.0 0.00 0.00 0.00 82 1008.5
20260506161005 62 262 0.0 0.0 0.00 0.00 0.00 82 1008.6
20260506160505 62 149 0.0 0.0 0.00 0.00 0.00 82 1008.5
20260506155957 62 244 0.0 0.0 0.00 0.00 0.00 82 1008.6
20260506155451 62 141 0.0 0.0 0.00 0.00 0.00 82 1008.8
20260506154951 62 233 0.0 0.0 0.00 0.00 0.00 81 1008.9
20260506154449 62 158 0.0 0.0 0.00 0.00 0.00 82 1008.9
20260506154445 62 243 0.0 0.0 0.00 0.00 0.00 81 1008.9
20260506153940 62 96 0.0 0.0 0.00 0.00 0.00 82 1008.9
20260506152940 62 224 0.0 0.0 0.00 0.00 0.00 82 1008.8
20260506152437 62 123 0.0 0.0 0.00 0.00 0.00 82 1008.8
20260506151937 62 94 0.0 0.0 0.00 0.00 0.00 82 1008.8
20260506151435 62 205 0.0 0.0 0.00 0.00 0.00 82 1008.8
20260506150935 62 80 0.0 0.0 0.00 0.00 0.00 82 1008.6
20260506150430 62 203 0.0 0.0 0.00 0.00 0.00 81 1008.4
20260506145932 62 217 0.0 0.0 0.00 0.00 0.00 82 1008.2
20260506145440 62 166 0.0 0.0 0.00 0.00 0.00 82 1008.2
20260506145436 62 250 0.0 0.0 0.00 0.00 0.00 81 1008.2
20260506144929 62 70 0.0 0.0 0.00 0.00 0.00 82 1008.3
20260506143927 62 237 0.0 0.0 0.00 0.00 0.00 83 1008.4
20260506143427 62 196 0.0 0.0 0.00 0.00 0.00 83 1008.5
20260506142927 62 97 0.0 0.0 0.00 0.00 0.00 83 1008.8
20260506142411 61 276 0.0 0.0 0.00 0.00 0.00 84 1008.9
20260506141909 61 153 0.0 0.0 0.00 0.00 0.00 84 1009.0
20260506141409 61 224 0.0 0.0 0.00 0.00 0.00 84 1009.0
20260506140909 61 262 0.0 0.0 0.00 0.00 0.00 84 1009.1
20260506140403 61 250 0.0 0.0 0.00 0.00 0.00 84 1009.0
20260506135903 60 215 0.0 0.0 0.00 0.00 0.00 85 1009.0
20260506135401 60 257 0.0 0.0 0.00 0.00 0.00 85 1009.0
20260506134901 60 277 0.0 0.0 0.00 0.00 0.00 85 1009.0
20260506134401 60 208 0.0 0.0 0.00 0.00 0.00 85 1009.0
20260506133900 60 258 0.0 0.0 0.00 0.00 0.00 85 1009.0
20260506133341 60 236 0.0 0.0 0.00 0.00 0.00 85 1008.9
20260506132839 60 248 0.0 0.0 0.00 0.00 0.00 84 1008.8
20260506132332 60 41 0.0 0.0 0.00 0.00 0.00 85 1008.7
20260506131833 60 200 0.0 0.0 0.00 0.00 0.00 85 1008.9
20260506131311 60 136 0.0 0.0 0.00 0.00 0.00 85 1008.6
20260506130815 60 155 0.0 0.0 0.00 0.00 0.00 85 1008.6
20260506130811 60 195 0.0 0.0 0.00 0.00 0.00 85 1008.6
20260506130415 59 138 0.0 0.0 0.00 0.00 0.00 87 1008.7
20260506125311 58 233 0.0 0.0 0.00 0.00 0.00 86 1008.7
20260506124811 59 216 0.0 0.0 0.00 0.00 0.00 86 1008.8
20260506124310 58 116 0.0 0.0 0.00 0.00 0.00 87 1008.9
20260506123811 58 119 0.0 0.0 0.00 0.00 0.00 88 1008.9
20260506123256 57 124 0.0 0.0 0.00 0.00 0.00 88 1009.0
20260506123252 58 213 0.0 0.0 0.00 0.00 0.00 87 1009.1
20260506122248 58 151 0.0 0.0 0.00 0.00 0.00 87 1009.0
20260506121747 58 238 0.0 0.0 0.00 0.00 0.00 88 1008.9
20260506121247 58 118 0.0 0.0 0.00 0.00 0.00 88 1009.0
20260506120744 58 113 0.0 0.0 0.00 0.00 0.00 88 1009.0
20260506120209 57 183 0.0 0.0 0.00 0.00 0.00 89 1009.1
20260506115709 57 106 0.0 0.0 0.00 0.00 0.00 88 1009.1
20260506115653 57 193 0.0 0.0 0.00 0.00 0.00 89 1009.3